This is the latest recevied weather packets stored in our database for station/object N0ZMJ-3. If no packets are shown the sender has not sent any weather packets the latest 10 day(s).
| Time | Temp. | Humidity | Pressure | Rain* | Wind** | Luminosity | Snow |
|---|---|---|---|---|---|---|---|
| 1777851803 | 21.11° C | 28% | 1005.3 hPa | 0 mm | - | - | - |
| 1777851383 | 21.11° C | 31% | 1005.4 hPa | 0 mm | - | - | - |
| 1777851255 | 21.11° C | 29% | 1005.5 hPa | 0 mm | - | - | - |
| 1777850962 | 21.11° C | 28% | 1005.5 hPa | 0 mm | - | - | - |
| 1777850655 | 21.11° C | 31% | 1005.5 hPa | 0 mm | - | - | - |
| 1777850544 | 21.11° C | 31% | 1005.5 hPa | 0 mm | - | - | - |
| 1777850122 | 21.11° C | 27% | 1005.6 hPa | 0 mm | - | - | - |
| 1777850055 | 21.11° C | 30% | 1005.7 hPa | 0 mm | - | - | - |
| 1777849703 | 21.11° C | 28% | 1005.7 hPa | 0 mm | - | - | - |
| 1777849454 | 21.11° C | 31% | 1005.8 hPa | 0 mm | - | - | - |
| 1777849287 | 21.11° C | 31% | 1005.8 hPa | 0 mm | - | - | - |
| 1777848854 | 21.11° C | 31% | 1005.7 hPa | 0 mm | - | - | - |
| 1777848445 | 21.11° C | 31% | 1005.8 hPa | 0 mm | - | - | - |
| 1777848256 | 21.67° C | 31% | 1006 hPa | 0 mm | - | - | - |
| 1777848029 | 21.67° C | 31% | 1006 hPa | 0 mm | - | - | - |
| 1777847655 | 21.11° C | 34% | 1006 hPa | 0 mm | - | - | - |
| 1777847183 | 21.67° C | 33% | 1006 hPa | 0 mm | - | - | - |
| 1777847055 | 21.11° C | 33% | 1006 hPa | 0 mm | - | - | - |
| 1777846764 | 21.11° C | 35% | 1006 hPa | 0 mm | - | - | - |
| 1777846455 | 21.11° C | 34% | 1006 hPa | 0 mm | - | - | - |
| 1777846344 | 21.11° C | 34% | 1006 hPa | 0 mm | - | - | - |
| 1777845924 | 21.67° C | 34% | 1006.2 hPa | 0 mm | - | - | - |
| 1777845855 | 21.67° C | 35% | 1006.1 hPa | 0 mm | - | - | - |
| 1777845503 | 21.11° C | 35% | 1006.2 hPa | 0 mm | - | - | - |
| 1777845255 | 21.11° C | 35% | 1006.3 hPa | 0 mm | - | - | - |
* Rain latest hour (hover to see other rain measurements)
** Current wind speed in m/s (hover to see current wind gust speed)